Location: Castle Hill Houses
(40.8186°N, 73.8497°W)
Time: 23:36:51
(UTC+00:00)

USA 238 - Pass Details

Date: 26 January 2020
Orbit: 1023 x 1189 km, 63.4° (Epoch: 20 February)

Event Time Altitude Azimuth Distance (km) Brightness Sun altitude
Exits shadow 09:32:04 73° 232° (SW) 1,210 3.7 -30.1°
Drops below altitude 10° 09:39:22 10° 156° (SSE) 3,096 6.4 -28.7°
Sets 09:42:07 0° 155° (SSE) 4,064 7.1 -28.2°
